Weather reports worldwide

Advertisment
Orense, Spain (8048): temperature & dewpoint: 02.08.2020 17:00:00 - 08.08.2020 17:00:00 (CEST)Orense, Spain (8048): wind speed: 02.08.2020 17:00:00 - 08.08.2020 17:00:00 (CEST)Orense, Spain (8048): wind direction: 02.08.2020 17:00:00 - 08.08.2020 17:00:00 (CEST)Orense, Spain (8048): reduced air pressure: 02.08.2020 17:00:00 - 08.08.2020 17:00:00 (CEST)Orense, Spain (8048): visibility: 02.08.2020 17:00:00 - 08.08.2020 17:00:00 (CEST)Orense, Spain (8048): precipitation: 02.08.2020 17:00:00 - 08.08.2020 17:00:00 (CEST)
Date & Time tt [°C] td [°C] ff [km/h] ff [kn] dd ppp [hPa] vv [km] rr [mm]
08.08.2020 17:00:00 35,8 13,3 4 2 WSW 1013,6 20 -
08.08.2020 16:00:00 36,7 14,1 9 5 WSW 1014,1 20 0,0
08.08.2020 15:00:00 34,8 14,1 8 4 WSW 1014,9 20 0,0
08.08.2020 14:00:00 31,6 14,3 2 1 N 1015,8 20 -
08.08.2020 13:00:00 28,8 15,0 4 2 SE 1016,6 20 0,0
08.08.2020 12:00:00 25,6 12,8 4 2 NW 1017,4 20 0,0
08.08.2020 11:00:00 22,8 12,7 4 2 SE 1018,3 20 -
08.08.2020 10:00:00 20,2 12,9 4 2 SE 1018,8 20 0,0
08.08.2020 09:00:00 17,7 12,4 4 2 S 1019,0 20 0,0
08.08.2020 08:00:00 17,0 11,5 2 1 S 1018,9 20 -
08.08.2020 07:00:00 17,8 11,4 2 1 SSE 1018,5 20 0,0
08.08.2020 06:00:00 18,8 11,6 2 1 WNW 1018,4 20 0,0
08.08.2020 05:00:00 19,8 11,6 4 2 SE 1018,2 20 -
08.08.2020 04:00:00 21,4 11,1 4 2 N 1018,2 20 0,0
08.08.2020 03:00:00 22,3 10,8 4 2 N 1018,0 20 0,0
08.08.2020 02:00:00 23,4 10,8 2 1 NNE 1018,2 20 -
08.08.2020 01:00:00 24,7 11,3 4 2 NNE 1018,0 20 0,0
08.08.2020 00:00:00 25,9 12,0 4 2 NNW 1017,6 20 0,0
07.08.2020 23:00:00 27,5 15,2 5 3 N 1016,9 20 -
07.08.2020 22:00:00 29,9 12,8 4 2 N 1015,9 20 0,0
07.08.2020 21:00:00 31,8 12,1 4 2 NNE 1014,9 20 0,0
07.08.2020 20:00:00 32,9 14,5 4 2 SW 1014,2 20 -
07.08.2020 19:00:00 34,2 14,7 4 2 ESE 1013,7 20 0,0
07.08.2020 18:00:00 36,9 16,5 8 4 WNW 1013,2 20 0,0
07.08.2020 17:00:00 36,9 12,4 8 4 W 1013,4 20 -
07.08.2020 16:00:00 36,0 13,5 8 4 WSW 1013,8 20 0,0
07.08.2020 15:00:00 34,2 14,7 5 3 N 1014,2 20 0,0
07.08.2020 14:00:00 32,1 17,2 5 3 NNE 1014,8 20 -
07.08.2020 13:00:00 29,7 17,2 5 3 NNW 1015,4 20 0,0
07.08.2020 12:00:00 27,0 16,6 5 3 NE 1015,8 20 0,0
07.08.2020 11:00:00 24,7 16,4 4 2 NW 1016,1 19 -
07.08.2020 10:00:00 22,3 15,9 4 2 NNE 1016,2 19 0,0
07.08.2020 09:00:00 19,6 15,0 2 1 W 1015,7 19 0,0
07.08.2020 08:00:00 19,1 14,6 2 1 WSW 1015,2 20 -
07.08.2020 07:00:00 19,6 14,4 2 1 S 1014,4 20 0,0
07.08.2020 06:00:00 20,2 14,3 2 1 SE 1014,0 20 0,0
07.08.2020 05:00:00 21,2 14,4 2 1 S 1013,8 20 -
07.08.2020 04:00:00 22,0 14,1 2 1 S 1013,7 20 0,0
07.08.2020 03:00:00 23,2 14,2 4 2 WSW 1013,7 20 0,0
07.08.2020 02:00:00 24,4 13,9 4 2 W 1013,6 20 -
07.08.2020 01:00:00 25,8 13,0 4 2 W 1013,2 20 0,0
07.08.2020 00:00:00 27,4 12,6 4 2 SW 1012,8 20 0,0
06.08.2020 23:00:00 29,3 12,7 4 2 SE 1012,0 20 -
06.08.2020 22:00:00 32,1 11,3 4 2 WSW 1011,0 20 0,0
06.08.2020 21:00:00 34,8 11,2 9 5 WSW 1009,9 20 0,0
06.08.2020 20:00:00 37,1 11,1 5 3 W 1009,0 20 -
06.08.2020 19:00:00 38,6 12,4 9 5 W 1008,0 20 0,0
06.08.2020 18:00:00 39,8 11,8 15 8 WSW 1007,6 20 0,0
06.08.2020 17:00:00 40,3 9,7 13 7 W 1007,5 20 -
06.08.2020 16:00:00 39,8 12,6 9 5 W 1007,7 20 0,0
06.08.2020 15:00:00 36,8 12,3 5 3 NNW 1008,3 20 0,0
06.08.2020 14:00:00 34,1 13,5 5 3 WNW 1009,2 20 -
06.08.2020 13:00:00 30,0 15,7 4 2 W 1010,3 20 0,0
06.08.2020 12:00:00 26,5 16,1 4 2 WSW 1011,0 20 0,0
06.08.2020 11:00:00 23,8 16,3 2 1 NE 1011,6 20 -
06.08.2020 10:00:00 21,0 15,5 2 1 SW 1012,2 20 0,0
06.08.2020 09:00:00 18,1 15,0 2 1 SSW 1012,5 20 0,0
06.08.2020 08:00:00 17,6 14,7 2 1 S 1012,3 19 -
06.08.2020 07:00:00 18,2 14,9 2 1 SSW 1012,1 20 0,0
06.08.2020 06:00:00 19,0 15,1 2 1 S 1011,9 20 0,0
06.08.2020 05:00:00 19,9 15,5 4 2 WSW 1011,8 20 -
06.08.2020 04:00:00 21,1 15,4 4 2 W 1011,8 20 0,0
06.08.2020 03:00:00 22,3 15,4 4 2 WNW 1012,0 20 0,0
06.08.2020 02:00:00 23,9 15,4 4 2 W 1012,0 20 -
06.08.2020 01:00:00 25,7 16,5 4 2 WNW 1011,9 20 0,0
06.08.2020 00:00:00 27,0 16,9 4 2 N 1011,7 20 0,0
05.08.2020 23:00:00 28,5 14,3 4 2 NNW 1011,5 20 -
05.08.2020 22:00:00 30,6 13,4 4 2 ESE 1010,3 20 0,0
05.08.2020 21:00:00 34,0 12,4 8 4 W 1009,2 20 0,0
05.08.2020 20:00:00 36,0 10,9 9 5 W 1008,4 20 -
05.08.2020 19:00:00 36,9 10,2 13 7 W 1008,3 20 0,0
05.08.2020 18:00:00 37,4 4,3 5 3 NNW 1008,6 20 0,0
05.08.2020 17:00:00 37,3 5,3 5 3 NNE 1009,0 20 -
05.08.2020 16:00:00 35,9 5,2 5 3 NNE 1009,8 20 0,0
05.08.2020 15:00:00 34,0 6,3 5 3 N 1010,5 20 0,0
05.08.2020 14:00:00 31,5 9,1 4 2 N 1011,3 20 -
05.08.2020 13:00:00 29,1 11,6 4 2 ENE 1012,1 20 0,0
05.08.2020 12:00:00 24,9 12,8 4 2 N 1013,0 20 0,0
05.08.2020 11:00:00 21,3 13,0 4 2 W 1013,6 20 -
05.08.2020 10:00:00 18,0 12,4 2 1 SSW 1014,3 20 0,0
05.08.2020 09:00:00 14,8 11,4 2 1 S 1014,5 20 0,0
05.08.2020 08:00:00 14,2 10,8 2 1 S 1014,4 20 -
05.08.2020 07:00:00 14,8 11,0 2 1 WSW 1013,9 20 0,0
05.08.2020 06:00:00 15,7 11,3 2 1 S 1013,6 20 0,0
05.08.2020 05:00:00 16,8 11,5 4 2 S 1013,8 20 -
05.08.2020 04:00:00 18,4 11,9 2 1 SE 1013,8 20 0,0
05.08.2020 03:00:00 20,2 12,4 2 1 S 1013,8 20 0,0
05.08.2020 02:00:00 22,4 12,9 2 1 N 1013,9 20 -
05.08.2020 01:00:00 23,6 12,9 2 1 NNE 1013,7 20 0,0
05.08.2020 00:00:00 25,3 13,2 4 2 NW 1013,7 20 0,0
04.08.2020 23:00:00 27,1 11,6 4 2 NNW 1013,2 20 -
04.08.2020 22:00:00 29,7 8,1 4 2 N 1012,3 20 0,0
04.08.2020 21:00:00 32,9 7,0 4 2 N 1011,6 20 0,0
04.08.2020 20:00:00 34,0 6,3 5 3 N 1011,3 20 -
04.08.2020 19:00:00 34,0 1,7 5 3 NNE 1011,4 20 0,0
04.08.2020 18:00:00 34,1 1,8 5 3 NNW 1011,8 20 0,0
04.08.2020 17:00:00 33,6 5,2 5 3 W 1012,6 20 -
04.08.2020 16:00:00 32,1 0,2 8 4 ENE 1013,5 20 0,0
04.08.2020 15:00:00 30,3 4,8 5 3 W 1014,5 20 0,0
04.08.2020 14:00:00 28,0 11,1 4 2 N 1015,5 20 -
04.08.2020 13:00:00 25,3 13,5 4 2 NNW 1016,3 20 0,0
04.08.2020 12:00:00 24,0 13,5 4 2 NW 1016,7 20 0,0
04.08.2020 11:00:00 21,6 13,8 5 3 W 1017,6 20 -
04.08.2020 10:00:00 19,8 13,9 4 2 SE 1017,9 20 0,0
04.08.2020 09:00:00 18,4 13,9 4 2 SSE 1017,9 20 0,0
04.08.2020 08:00:00 17,5 13,6 2 1 W 1017,9 20 -
04.08.2020 07:00:00 17,7 13,6 4 2 SE 1017,7 20 0,0
04.08.2020 06:00:00 17,9 13,8 2 1 SSE 1017,8 20 0,0
04.08.2020 05:00:00 17,1 13,4 2 1 W 1018,0 20 -
04.08.2020 04:00:00 17,8 13,5 4 2 W 1018,1 20 0,0
04.08.2020 03:00:00 18,9 13,7 2 1 S 1018,3 20 0,0
04.08.2020 02:00:00 19,9 13,8 2 1 NE 1018,3 20 -
04.08.2020 01:00:00 20,6 14,0 4 2 NE 1018,3 18 0,0
04.08.2020 00:00:00 21,6 13,8 4 2 NE 1018,2 16 0,0
03.08.2020 23:00:00 22,8 14,1 4 2 N 1017,5 19 -
03.08.2020 22:00:00 24,6 13,8 4 2 NE 1016,3 20 0,0
03.08.2020 21:00:00 27,4 13,7 5 3 W 1015,5 20 0,0
03.08.2020 20:00:00 28,9 13,2 5 3 WSW 1015,3 19 -
03.08.2020 19:00:00 29,6 12,1 9 5 W 1015,3 20 0,0
03.08.2020 18:00:00 30,3 12,2 8 4 W 1015,2 20 0,0
03.08.2020 17:00:00 30,3 12,2 8 4 WNW 1015,2 20 -
03.08.2020 16:00:00 30,1 13,0 8 4 W 1016,1 18 0,0
03.08.2020 15:00:00 29,1 13,3 8 4 SW 1016,6 18 0,0
03.08.2020 14:00:00 27,7 12,9 8 4 WSW 1017,3 11 -
03.08.2020 13:00:00 25,2 11,7 4 2 NNW 1018,3 19 0,0
03.08.2020 12:00:00 22,5 10,6 4 2 E 1019,3 20 0,0
03.08.2020 11:00:00 19,8 12,5 4 2 SSE 1019,9 20 -
03.08.2020 10:00:00 17,3 12,0 4 2 ESE 1020,4 20 0,0
03.08.2020 09:00:00 14,9 11,5 2 1 S 1020,6 20 0,0
03.08.2020 08:00:00 14,1 10,9 4 2 SSE 1020,5 20 -
03.08.2020 07:00:00 14,8 11,2 2 1 SSW 1020,0 20 0,0
03.08.2020 06:00:00 15,6 11,4 2 1 SSE 1019,9 20 0,0
03.08.2020 05:00:00 16,8 11,5 2 1 SE 1019,7 20 -
03.08.2020 04:00:00 18,1 11,9 4 2 W 1019,7 20 0,0
03.08.2020 03:00:00 19,0 12,3 2 1 ENE 1019,5 20 0,0
03.08.2020 02:00:00 19,7 11,5 4 2 NNW 1019,6 20 -
03.08.2020 01:00:00 20,3 11,8 2 1 N 1019,6 20 0,0
03.08.2020 00:00:00 21,4 12,0 4 2 NNE 1019,3 20 0,0
02.08.2020 23:00:00 22,5 12,4 4 2 NE 1018,9 20 -
02.08.2020 22:00:00 23,8 13,6 8 4 W 1018,1 20 0,0
02.08.2020 21:00:00 26,4 9,7 4 2 N 1017,2 20 0,0
02.08.2020 20:00:00 28,6 8,8 5 3 N 1017,2 20 -
02.08.2020 19:00:00 30,2 8,0 8 4 NE 1016,5 20 0,0
02.08.2020 18:00:00 29,8 8,8 8 4 NE 1016,7 20 0,0
02.08.2020 17:00:00 28,8 9,5 8 4 N 1017,4 20 -

tt = temperature
td = dewpoint
ff = wind speed
dd = wind direction
ppp = reduced air pressure
vv = visibility
rr = precipitation

Next stations